This is the latest recevied weather packets stored in our database for station/object DPX206-15. If no packets are shown the sender has not sent any weather packets the latest 1 day(s).
| Time | Temp. | Humidity | Pressure | Rain* | Wind** | Luminosity | Snow |
|---|---|---|---|---|---|---|---|
| 1778010407 | 11.67° C | 93% | 1008.9 hPa | 0.76 mm | 0.89 m/s, 90° | 0 W/m² | - |
| 1778009657 | 11.67° C | 93% | 1009.1 hPa | 0.51 mm | 0.89 m/s, 80° | 0 W/m² | - |
| 1778008907 | 11.67° C | 93% | 1009 hPa | 0.25 mm | 1.34 m/s, 89° | 0 W/m² | - |
| 1778008157 | 11.67° C | 92% | 1009.1 hPa | 0.25 mm | 0.89 m/s, 81° | 0 W/m² | - |
| 1778007407 | 11.67° C | 92% | 1008.9 hPa | 0 mm | 0.45 m/s, 57° | 0 W/m² | - |
| 1778006656 | 11.67° C | 92% | 1009.2 hPa | 0 mm | 1.34 m/s, 79° | 0 W/m² | - |
| 1778005906 | 12.22° C | 92% | 1009.2 hPa | 0 mm | 1.79 m/s, 86° | 0 W/m² | - |
| 1778005156 | 12.22° C | 91% | 1009.2 hPa | 0 mm | 1.34 m/s, 22° | 0 W/m² | - |
| 1778004406 | 12.78° C | 92% | 1009.2 hPa | 0 mm | 0.89 m/s, 26° | 0 W/m² | - |
| 1778003655 | 12.78° C | 91% | 1008.9 hPa | 0 mm | 0.89 m/s, 84° | 1 W/m² | - |
| 1778002905 | 12.78° C | 91% | 1009.1 hPa | 0 mm | 1.79 m/s, 63° | 1 W/m² | - |
| 1778002155 | 13.33° C | 90% | 1009.3 hPa | 0.25 mm | 0.89 m/s, 20° | 4 W/m² | - |
| 1778001405 | 13.33° C | 90% | 1009.4 hPa | 0.25 mm | 0.89 m/s, 19° | 3 W/m² | - |
| 1778000654 | 13.33° C | 90% | 1009.4 hPa | 0.25 mm | 0.89 m/s, 19° | 3 W/m² | - |
| 1777999904 | 13.33° C | 90% | 1009.4 hPa | 0.25 mm | 0.89 m/s, 19° | 3 W/m² | - |
| 1777999154 | 13.33° C | 90% | 1009.3 hPa | 0.51 mm | 0.45 m/s, 27° | 8 W/m² | - |
| 1777998404 | 13.33° C | 90% | 1009.3 hPa | 0.51 mm | 0.89 m/s, 83° | 18 W/m² | - |
| 1777997654 | 13.33° C | 90% | 1009.5 hPa | 0.51 mm | 0.89 m/s, 67° | 34 W/m² | - |
| 1777996153 | 13.89° C | 89% | 1009.5 hPa | 0.25 mm | 0.89 m/s, 88° | 10 W/m² | - |
| 1777995403 | 13.89° C | 88% | 1009.8 hPa | 0 mm | 0.89 m/s, 83° | 6 W/m² | - |
| 1777994652 | 14.44° C | 87% | 1009.5 hPa | 0 mm | 0.45 m/s, 39° | 17 W/m² | - |
| 1777993902 | 14.44° C | 86% | 1009.7 hPa | 0 mm | 0.89 m/s, 49° | 35 W/m² | - |
| 1777993152 | 14.44° C | 85% | 1010 hPa | 0 mm | 1.34 m/s, 17° | 15 W/m² | - |
| 1777992402 | 15° C | 84% | 1009.9 hPa | 0 mm | 0.89 m/s, 16° | 14 W/m² | - |
| 1777991651 | 15° C | 84% | 1010 hPa | 0 mm | 0.89 m/s, 61° | 13 W/m² | - |
* Rain latest hour (hover to see other rain measurements)
** Current wind speed in m/s (hover to see current wind gust speed)